Marion, IN

4:59 AM EDT on September 20, 2017 (GMT -0400)
Marion Municipal

Weather History for KMZZ - May, 2014

Change the Weather History Date:

Wednesday, May 21, 2014

  Actual Average (KMIE) Record (KMIE)
Temperature  
Mean Temperature 74 °F -  
Max Temperature 84 °F 74 °F 92 °F (1975)
Min Temperature 63 °F 53 °F 39 °F (2002)
Cooling Degree Days 8    
Growing Degree Days 24 (Base 50)    
Moisture  
Dew Point 61 °F    
Average Humidity 69    
Maximum Humidity 85    
Minimum Humidity 46    
Precipitation  
Precipitation 0.00 in - - ()
Sea Level Pressure  
Sea Level Pressure 29.91 in    
Wind  
Wind Speed 10 mph (SW)    
Max Wind Speed 17 mph    
Max Gust Speed 23 mph    
Visibility 8 miles    
Events      
Averages and records for this station are not official NWS values.
T = Trace of Precipitation, MM = Missing Value Source: NWS Daily Summary

Daily Weather History Graph

Daily Weather History Graph

Search for Another Location

Airport or City:

Trip Planner

Search our weather history database for the weather conditions in past years. The results will help you decide how hot, cold, wet, or windy it might be!

Date:

Astronomy

May. 21, 2014 Rise Set
Actual Time 6:21 AM EDT 8:58 PM EDT
Civil Twilight 5:49 AM EDT 9:29 PM EDT
Nautical Twilight 5:10 AM EDT 10:09 PM EDT
Astronomical Twilight 4:25 AM EDT 10:53 PM EDT
Moon 2:05 AM EDT (5/21) 1:37 PM EDT (5/21)
Length of Visible Light 15h 40m
Length of Day
14h 36m
Waning Gibbous, 49% of the Moon is Illuminated
May 21
Waning Gibbous
May 28
New
Jun 5
First Quarter
Jun 13
Full
Jun 19
Last Quarter

Hourly Weather History & Observations

Time (EDT) Temp. Heat Index Dew Point Humidity Pressure Visibility Wind Dir Wind Speed Gust Speed Precip Events Conditions
12:15 AM 71.1 °F - 60.6 °F 69% 29.94 in 10.0 mi SSW 10.4 mph - N/A   Overcast
12:35 AM 71.4 °F - 60.3 °F 68% 29.94 in 7.0 mi SSW 12.7 mph - N/A   Mostly Cloudy
12:55 AM 71.4 °F - 59.7 °F 66% 29.92 in 7.0 mi SSW 15.0 mph 19.6 mph N/A   Scattered Clouds
1:15 AM 71.4 °F - 59.4 °F 66% 29.92 in 10.0 mi SSW 15.0 mph - N/A   Clear
1:35 AM 71.4 °F - 59.0 °F 65% 29.92 in 10.0 mi SSW 11.5 mph - N/A   Clear
1:55 AM 70.5 °F - 59.0 °F 67% 29.92 in 10.0 mi SSW 10.4 mph - N/A   Clear
2:15 AM 69.8 °F - 59.0 °F 68% 29.92 in 10.0 mi SSW 10.4 mph - N/A   Clear
2:35 AM 69.3 °F - 58.8 °F 69% 29.91 in 7.0 mi South 9.2 mph - N/A   Clear
2:55 AM 68.7 °F - 58.5 °F 70% 29.90 in 10.0 mi South 9.2 mph - N/A   Scattered Clouds
3:15 AM 68.0 °F - 58.5 °F 71% 29.90 in 10.0 mi SSW 8.1 mph - N/A   Mostly Cloudy
3:35 AM 67.8 °F - 58.3 °F 71% 29.89 in 10.0 mi SSW 6.9 mph - N/A   Overcast
3:55 AM 66.9 °F - 58.1 °F 73% 29.89 in 10.0 mi South 5.8 mph - N/A   Scattered Clouds
4:15 AM 65.8 °F - 58.1 °F 76% 29.88 in 7.0 mi South 8.1 mph - N/A   Clear
4:35 AM 65.3 °F - 57.7 °F 76% 29.88 in 10.0 mi South 5.8 mph - N/A   Clear
4:55 AM 64.8 °F - 57.6 °F 77% 29.87 in 10.0 mi South 8.1 mph - N/A   Clear
5:15 AM 64.4 °F - 57.4 °F 78% 29.88 in 7.0 mi South 6.9 mph - N/A   Clear
5:35 AM 64.4 °F - 57.4 °F 78% 29.89 in 7.0 mi South 5.8 mph - N/A   Clear
5:55 AM 63.9 °F - 57.4 °F 79% 29.89 in 7.0 mi SSW 5.8 mph - N/A   Clear
6:15 AM 63.7 °F - 57.6 °F 80% 29.89 in 10.0 mi SSW 5.8 mph - N/A   Clear
6:35 AM 63.5 °F - 58.1 °F 83% 29.90 in 10.0 mi SSW 5.8 mph - N/A   Scattered Clouds
6:55 AM 64.0 °F - 58.6 °F 83% 29.90 in 7.0 mi South 4.6 mph - N/A   Scattered Clouds
7:15 AM 64.6 °F - 59.2 °F 83% 29.91 in 7.0 mi South 4.6 mph - N/A   Mostly Cloudy
7:35 AM 64.0 °F - 59.0 °F 84% 29.91 in 7.0 mi SSE 3.5 mph - N/A   Scattered Clouds
7:55 AM 64.6 °F - 59.4 °F 83% 29.91 in 5.0 mi SSW 5.8 mph - N/A   Haze
8:15 AM 66.0 °F - 60.3 °F 82% 29.91 in 7.0 mi SSW 5.8 mph - N/A   Scattered Clouds
8:35 AM 67.6 °F - 61.2 °F 80% 29.90 in 7.0 mi SW 6.9 mph - N/A   Clear
8:55 AM 69.1 °F - 61.7 °F 77% 29.89 in 7.0 mi SW 10.4 mph - N/A   Clear
9:15 AM 71.1 °F - 62.2 °F 74% 29.91 in 7.0 mi WSW 12.7 mph - N/A   Clear
9:35 AM 72.1 °F - 62.6 °F 72% 29.91 in 5.0 mi West 11.5 mph - N/A   Haze
9:55 AM 71.8 °F - 62.2 °F 72% 29.92 in 7.0 mi West 12.7 mph - N/A   Scattered Clouds
10:15 AM 71.4 °F - 62.1 °F 72% 29.92 in 10.0 mi West 11.5 mph - N/A   Mostly Cloudy
10:35 AM 71.6 °F - 62.1 °F 72% 29.92 in 7.0 mi West 10.4 mph - N/A   Scattered Clouds
10:55 AM 73.0 °F - 62.6 °F 70% 29.90 in 7.0 mi WSW 10.4 mph - N/A   Mostly Cloudy
11:15 AM 74.3 °F - 62.8 °F 67% 29.91 in 7.0 mi WSW 13.8 mph - N/A   Mostly Cloudy
11:35 AM 74.8 °F - 63.1 °F 67% 29.92 in 7.0 mi WSW 13.8 mph - N/A   Scattered Clouds
11:55 AM 75.0 °F - 63.3 °F 67% 29.92 in 10.0 mi West 12.7 mph - N/A   Scattered Clouds
12:15 PM 76.1 °F - 63.5 °F 65% 29.92 in 7.0 mi West 13.8 mph - N/A   Scattered Clouds
12:35 PM 77.5 °F - 63.9 °F 63% 29.92 in 7.0 mi West 10.4 mph 17.3 mph N/A   Scattered Clouds
12:55 PM 79.0 °F - 63.5 °F 59% 29.92 in 7.0 mi WSW 12.7 mph 18.4 mph N/A   Clear
1:15 PM 79.7 °F - 63.7 °F 58% 29.91 in 10.0 mi West 15.0 mph 20.7 mph N/A   Clear
1:35 PM 79.9 °F - 63.1 °F 56% 29.91 in 7.0 mi West 9.2 mph 16.1 mph N/A   Clear
1:55 PM 80.4 °F 82.0 °F 63.7 °F 57% 29.92 in 10.0 mi West 12.7 mph - N/A   Mostly Cloudy
2:15 PM 81.0 °F 82.6 °F 64.2 °F 57% 29.91 in 10.0 mi West 10.4 mph 16.1 mph N/A   Overcast
2:35 PM 81.3 °F 82.9 °F 64.2 °F 56% 29.92 in 7.0 mi West 16.1 mph 21.9 mph N/A   Overcast
2:55 PM 81.7 °F 83.2 °F 63.9 °F 55% 29.91 in 7.0 mi West 17.3 mph 21.9 mph N/A   Mostly Cloudy
3:35 PM 83.3 °F 84.3 °F 62.8 °F 50% 29.90 in 10.0 mi West 13.8 mph 17.3 mph N/A   Scattered Clouds
3:55 PM 83.7 °F 84.5 °F 62.4 °F 49% 29.90 in 7.0 mi WNW 15.0 mph 21.9 mph N/A   Mostly Cloudy
4:15 PM 83.5 °F 84.5 °F 63.0 °F 50% 29.88 in 7.0 mi WNW 11.5 mph 16.1 mph N/A   Mostly Cloudy
4:35 PM 83.8 °F 84.7 °F 63.0 °F 49% 29.87 in 7.0 mi WNW 11.5 mph - N/A   Mostly Cloudy
4:55 PM 82.8 °F 83.8 °F 63.1 °F 51% 29.86 in 10.0 mi WNW 10.4 mph - N/A   Scattered Clouds
5:15 PM 84.4 °F 85.0 °F 62.2 °F 47% 29.86 in 7.0 mi West 11.5 mph 19.6 mph N/A   Overcast
5:35 PM 84.2 °F 85.0 °F 62.6 °F 48% 29.86 in 7.0 mi NW 9.2 mph - N/A   Mostly Cloudy
5:55 PM 84.0 °F 84.7 °F 62.4 °F 48% 29.87 in 7.0 mi NNW 9.2 mph - N/A   Scattered Clouds
6:15 PM 83.7 °F 83.9 °F 60.6 °F 46% 29.90 in 7.0 mi WSW 17.3 mph 23.0 mph N/A   Scattered Clouds
6:35 PM 77.5 °F - 61.7 °F 58% 29.89 in 7.0 mi WSW 17.3 mph - N/A   Mostly Cloudy
6:55 PM 74.7 °F - 62.2 °F 65% 29.89 in 10.0 mi SW 11.5 mph - N/A   Scattered Clouds
7:15 PM 74.5 °F - 62.8 °F 67% 29.90 in 10.0 mi SW 12.7 mph - N/A   Clear
7:35 PM 74.5 °F - 62.4 °F 66% 29.89 in 7.0 mi WSW 9.2 mph - N/A   Clear
7:55 PM 73.9 °F - 62.1 °F 66% 29.90 in 7.0 mi WSW 12.7 mph 17.3 mph N/A   Clear
8:15 PM 73.2 °F - 62.4 °F 69% 29.90 in 10.0 mi WSW 16.1 mph - N/A   Clear
8:35 PM 73.0 °F - 62.1 °F 68% 29.91 in 7.0 mi WSW 12.7 mph - N/A   Clear
8:55 PM 72.1 °F - 62.2 °F 71% 29.91 in 10.0 mi WSW 12.7 mph - N/A   Scattered Clouds
9:15 PM 71.2 °F - 62.6 °F 74% 29.91 in 10.0 mi SW 6.9 mph - N/A   Scattered Clouds
9:35 PM 69.6 °F - 62.2 °F 77% 29.92 in 10.0 mi SSW 6.9 mph - N/A   Clear
9:55 PM 68.7 °F - 62.1 °F 79% 29.94 in 10.0 mi SSW 5.8 mph - N/A   Scattered Clouds
10:15 PM 68.5 °F - 62.2 °F 80% 29.94 in 7.0 mi SW 4.6 mph - N/A   Mostly Cloudy
10:35 PM 68.2 °F - 62.4 °F 82% 29.94 in 10.0 mi SW 4.6 mph - N/A   Mostly Cloudy
10:55 PM 68.2 °F - 62.6 °F 82% 29.93 in 7.0 mi Calm Calm - N/A   Scattered Clouds
11:15 PM 67.1 °F - 62.1 °F 84% 29.93 in 10.0 mi Calm Calm - N/A   Clear
11:35 PM 66.6 °F - 62.1 °F 85% 29.93 in 10.0 mi Calm Calm - N/A   Clear
11:55 PM 66.4 °F - 61.9 °F 85% 29.92 in 10.0 mi Calm Calm - N/A   Clear